Station 45007 (LLNR 20595) - SOUTH MICHIGAN - 43NM East Southeast of Milwaukee, WI Image indicating link to RSS feed of recent meteorological observations for station 45007


Conditions at 45007 as of
(5:40 pm EDT)
2140 GMT on 05/18/2024:
     

Click on the graph icon in the table below to see a time series plot of the last five days of that observation.

5-day plot - Wind Direction Wind Direction (WDIR): SE ( 140 deg true )
5-day plot - Wind Speed Wind Speed (WSPD): 7.8 kts
5-day plot - Wind Gust Wind Gust (GST): 7.8 kts
5-day plot - Atmospheric Pressure Atmospheric Pressure (PRES):29.85 in
5-day plot - Air Temperature Air Temperature (ATMP): 59.0 °F
5-day plot - Dew Point Dew Point (DEWP): 57.0 °F
5-day plot - Wind Speed at 10 Meters Wind Speed at 10 meters (WSPD10M): 7.8 kts
5-day plot - Wind Speed at 20 Meters Wind Speed at 20 meters (WSPD20M): 7.8 kts
5-day plot -  Wind Speed, Wind Gust and Atmospheric Pressure Combined plot of Wind Speed, Gust, and Air Pressure
Supplemental Measurements
Lowest 1-minute Pressure
Time (EDT)Pressure
5:40 pm29.85 in
Highest 1-minute Wind Speed
Time (EDT)5-day plot - 1-Minute Wind Speed WSPD 5-day plot - 1-Minute Wind Direction WDIR
5:35 pm 7.8 kts SE ( 140 deg true )
Previous observations
TIME
(EDT)
5-day plot - Wind Direction
WDIR
 
5-day plot - Wind Speed
WSPD
kts
5-day plot - Wind Gust
GST
kts
5-day plot - Wave Height
WVHT
ft
5-day plot - Dominant Wave Period
DPD
sec
5-day plot - Average Wave Period
APD
sec
5-day plot - Mean Wave Direction
MWD
 
5-day plot - Atmospheric Pressure
PRES
in
5-day plot - Pressure Tendency
PTDY
in
5-day plot - Air Temperature
ATMP
°F
5-day plot - Water Temperature
WTMP
°F
5-day plot - Dew Point
DEWP
°F
5-day plot - Salinity
SAL
psu
5-day plot - Visibility
VIS
nmi
5-day plot - Tide (above MLLW)
TIDE
ft
2024-05-18 05:30 pm SE 7.8 7.8----29.85- 59.0- 57.2---
2024-05-18 05:20 pm SE 7.8 7.8 0.0-2.8---------
2024-05-18 05:10 pm SE 7.8 7.8 0.0-2.8-29.86- 58.5- 56.8---
2024-05-18 05:00 pm SE 5.8 7.8----29.86-0.03 58.5- 57.0---
2024-05-18 04:50 pm SE 5.8 5.8 0.0-2.7---------
2024-05-18 04:40 pm SE 5.8 7.8 0.0-2.7-29.86- 57.9- 56.8---
2024-05-18 04:30 pm SE 5.8 5.8----29.86- 57.7- 56.8---
2024-05-18 04:20 pm SE 5.8 7.8 0.0-2.7---------
2024-05-18 04:10 pm SE 5.8 7.8 0.0-2.7-29.87- 57.6- 56.7---
2024-05-18 04:00 pmSSE 5.8 5.8----29.87-0.03 57.4- 56.5---
2024-05-18 03:50 pmSSE 5.8 5.8 0.0-2.7---------
2024-05-18 03:40 pmSSE 5.8 5.8 0.0-2.7-29.88- 56.7- 55.8---
2024-05-18 03:30 pmSSE 5.8 5.8----29.88- 56.7- 55.8---
2024-05-18 03:20 pmSSE 5.8 5.8------------
2024-05-18 03:10 pmSSE 3.9 5.8----29.88- 55.9- 55.0---
2024-05-18 03:00 pmSSE 5.8 5.8----29.88-0.02 55.8- 54.9---
2024-05-18 02:50 pmSSE 5.8 5.8 0.0-3.7-29.88- 55.6- 54.7---
2024-05-18 02:40 pmSSE 5.8 5.8----29.88- 55.4- 54.5---
2024-05-18 02:30 pmSSE 5.8 5.8----29.88- 55.2- 54.3---
2024-05-18 02:20 pmSSE 5.8 5.8 0.0-2.8---------
2024-05-18 02:10 pmSSE 3.9 5.8 0.0-2.8-29.89- 54.7- 53.8---
2024-05-18 02:00 pmSSE 3.9 5.8----29.89+0.00 54.7- 53.8---
2024-05-18 01:50 pmSSE 3.9 5.8 0.0-2.8---------
2024-05-18 01:40 pmSSE 3.9 5.8----29.90- 54.3- 53.4---
2024-05-18 01:30 pm S 5.8 5.8----29.90- 54.3- 53.4---
2024-05-18 01:20 pm S 5.8 5.8 0.0-3.2---------
2024-05-18 01:10 pm S 5.8 5.8 0.0-3.2-29.90- 54.1- 53.2---
2024-05-18 01:00 pm S 5.8 5.8----29.90+0.00 54.0- 53.1---
2024-05-18 12:50 pm S 5.8 5.8 0.0-3.3---------
2024-05-18 12:40 pm S 5.8 7.8----29.90- 54.0- 53.1---
2024-05-18 12:30 pmSSE 5.8 7.8----29.90- 53.6- 52.7---
2024-05-18 12:20 pmSSE 5.8 7.8 0.0-3.3-29.90- 53.6- 52.7---
2024-05-18 12:10 pm S 5.8 7.8 0.0-3.3-29.90- 53.8- 52.9---
2024-05-18 12:00 pmSSE 5.8 7.8----29.90+0.00 53.6- 52.7---
2024-05-18 11:50 amSSE 5.8 7.8 0.0-3.8---------
2024-05-18 11:40 amSSE 5.8 5.8----29.89- 53.4- 52.5---
2024-05-18 11:30 amSSE 5.8 7.8----29.89- 53.2- 52.3---
2024-05-18 11:20 amSSE 5.8 7.8 0.3-2.7---------
2024-05-18 11:10 am SE 5.8 7.8 0.3-2.7-29.89- 52.9- 52.0---
2024-05-18 11:00 am SE 3.9 5.8----29.89+0.01 52.9- 52.0---
2024-05-18 10:50 amSSE 5.8 5.8 0.0-3.8---------
2024-05-18 10:40 amSSE 5.8 5.8 0.0-3.8-29.89- 53.2- 52.3---
2024-05-18 10:30 amSSE 5.8 5.8----29.90- 53.1- 52.2---
2024-05-18 10:20 amSSE 5.8 5.8 0.0-3.3---------
2024-05-18 10:10 amSSE 3.9 5.8 0.0-3.3-29.90- 52.9- 52.0---
2024-05-18 10:00 amSSE 5.8 5.8----29.90+0.03 52.9- 52.0---
2024-05-18 09:50 amSSE 5.8 5.8 0.3-3.2---------
2024-05-18 09:40 amSSE 3.9 5.8 0.3-3.2-29.90- 53.2- 52.0---
2024-05-18 09:30 am SE 3.9 3.9----29.90- 53.1- 51.8---
2024-05-18 09:20 am SE 3.9 5.8 0.0-2.8---------
2024-05-18 09:10 am SE 5.8 7.8 0.0-2.8-29.90- 52.5- 51.3---
2024-05-18 09:00 amSSE 5.8 7.8----29.90+0.05 53.2- 51.6---
2024-05-18 08:50 am S 3.9 5.8 0.0-2.6-29.89- 53.1- 51.4---
2024-05-18 08:40 am S 3.9 5.8----29.89- 53.2- 51.4---
2024-05-18 08:30 am S 5.8 5.8----29.88- 53.2- 51.3---
2024-05-18 08:20 amSSE 5.8 5.8 0.0-2.7---------
2024-05-18 08:10 am S 5.8 5.8----29.88- 53.8- 51.4---
2024-05-18 08:00 am S 5.8 7.8----29.88+0.05 53.6- 51.3---
2024-05-18 07:50 amSSE 5.8 5.8 0.0-2.6-29.87- 53.8- 51.1---
2024-05-18 07:40 amSSE 5.8 5.8----29.88- 54.0- 51.1---
2024-05-18 07:30 amSSE 5.8 7.8----29.88- 54.0- 51.1---
2024-05-18 07:20 amSSE 5.8 7.8 0.0-2.6---------
2024-05-18 07:10 amSSE 5.8 7.8 0.0-2.6-29.87- 53.8- 51.4---
2024-05-18 07:00 amSSE 5.8 5.8----29.86+0.03 53.6- 51.6---
2024-05-18 06:50 amSSE 5.8 5.8 0.0-2.7---------
2024-05-18 06:40 amSSE 5.8 5.8----29.85- 53.4- 52.2---
2024-05-18 06:30 am SE 5.8 5.8----29.85- 53.1- 52.2---
2024-05-18 06:20 am SE 5.8 5.8 0.0-2.7---------
2024-05-18 06:10 amESE 3.9 5.8----29.85- 52.2- 51.3---
2024-05-18 06:00 amESE 3.9 5.8----29.85+0.01 52.0- 51.1---
2024-05-18 05:50 am E 3.9 5.8 0.0-2.7-29.84- 51.6- 50.7---
2024-05-18 05:40 am E 3.9 3.9----29.84- 51.6- 50.7---
2024-05-18 05:30 am E 3.9 3.9----29.84- 50.9- 50.0---
2024-05-18 05:20 am E 3.9 3.9 0.3-3.0---------
2024-05-18 05:10 am E 3.9 3.9 0.3-3.0-29.83- 52.3- 51.4---
2024-05-18 05:00 am E 3.9 3.9----29.83+0.00 52.7- 51.8---
2024-05-18 04:50 am E 3.9 3.9 0.0-2.8---------
2024-05-18 04:40 am E 1.9 3.9----29.83- 53.1- 52.2---
2024-05-18 04:30 am E 1.9 1.9----29.83- 52.3- 51.4---
2024-05-18 04:20 am NE 1.9 1.9 0.0-2.7-29.83- 51.8- 50.9---
2024-05-18 04:10 am--- 0.0-2.7---------
2024-05-18 04:00 am- 0.0 0.0----29.83+0.00 51.6- 50.7---
2024-05-18 03:50 am- 0.0 1.9 0.0-2.6---------
2024-05-18 03:40 amNNW 3.9 3.9----29.83- 52.2- 51.3---
2024-05-18 03:30 amWNW 3.9 5.8----29.83- 52.5- 51.6---
2024-05-18 03:20 am SW 1.9 3.9 0.0-2.6---------
2024-05-18 03:10 amWSW 3.9 7.8 0.0-2.6-29.84- 51.4- 50.5---
2024-05-18 03:00 am SW 3.9 7.8----29.84+0.01 50.9- 50.0---
2024-05-18 02:50 amSSE 3.9 7.8 0.0-2.6---------
2024-05-18 02:40 am SW 3.9 7.8 0.0-2.6-29.84- 50.5- 49.6---
2024-05-18 02:30 am SE 3.9 5.8----29.84- 50.7- 49.8---
2024-05-18 02:20 amESE 3.9 3.9 0.0-2.5---------
2024-05-18 02:10 am SE 3.9 5.8 0.0-2.5-29.83- 50.5- 49.6---
2024-05-18 02:00 am SE 5.8 5.8----29.83+0.00 50.5- 49.6---
2024-05-18 01:50 am SE 3.9 5.8 0.3-2.3---------
2024-05-18 01:40 am SE 5.8 5.8----29.83- 50.2- 49.3---
2024-05-18 01:30 am SE 3.9 5.8----29.83- 50.2- 49.3---
2024-05-18 01:20 amESE 3.9 5.8 0.3-2.4---------
2024-05-18 01:10 am E 3.9 5.8----29.83- 50.2- 49.3---
2024-05-18 01:00 am E 3.9 5.8----29.83+0.01 50.2- 49.3---
2024-05-18 12:50 am E 3.9 5.8 0.3-2.4---------
2024-05-18 12:40 amENE 5.8 5.8 0.3-2.4-29.83- 50.0- 49.1---
2024-05-18 12:30 amENE 5.8 5.8----29.83- 50.0- 49.1---
2024-05-18 12:20 am E 5.8 5.8 0.3-2.3---------
2024-05-18 12:10 am E 5.8 5.8 0.3-2.3-29.83- 49.6- 48.7---
2024-05-18 12:00 am E 5.8 5.8----29.83+0.02 49.5- 48.7---
2024-05-17 11:50 pm E 5.8 5.8 0.3-2.4---------
2024-05-17 11:40 pm E 5.8 5.8----29.83- 49.1- 48.4---
2024-05-17 11:30 pmESE 5.8 5.8----29.83- 49.3- 48.6---
2024-05-17 11:20 pm SE 5.8 7.8 0.3-2.4---------
2024-05-17 11:10 pm SE 5.8 7.8----29.83- 49.3- 48.6---
2024-05-17 11:00 pmESE 5.8 7.8----29.83+0.02 49.3- 48.6---
2024-05-17 10:50 pm E 5.8 7.8 0.3-2.5---------
2024-05-17 10:40 pm E 7.8 9.7 0.3-2.5-29.82- 49.3- 48.6---
2024-05-17 10:30 pmENE 7.8 7.8----29.82- 49.5- 48.7---
2024-05-17 10:20 pmENE 7.8 7.8 0.3-2.8---------
2024-05-17 10:10 pmENE 7.8 7.8 0.3-2.8-29.81- 49.6- 48.7---
2024-05-17 10:00 pmENE 7.8 9.7----29.81+0.01 50.0- 49.1---
2024-05-17 09:50 pmENE 7.8 9.7 0.3-2.8---------
2024-05-17 09:40 pmENE 7.8 9.7 0.3-2.8-29.81- 51.3- 50.4---
2024-05-17 09:30 pmENE 5.8 7.8----29.81- 51.6- 50.7---
2024-05-17 09:20 pmENE 5.8 5.8 0.3-2.9---------
2024-05-17 09:10 pmENE 3.9 5.8 0.3-2.9-29.81- 52.0- 51.1---
2024-05-17 09:00 pmENE 3.9 5.8----29.81+0.01 52.0- 51.1---
2024-05-17 08:50 pm E 3.9 3.9 0.3-2.5-29.81- 52.2- 51.3---
2024-05-17 08:40 pm NE 3.9 3.9----29.81- 52.3- 51.4---
2024-05-17 08:30 pmENE 3.9 3.9----29.81- 52.7- 51.8---
2024-05-17 08:20 pm E 3.9 5.8 0.3-2.7---------
2024-05-17 08:10 pm E 3.9 5.8----29.80- 53.1- 52.2---
2024-05-17 08:00 pm E 3.9 7.8----29.81-0.01 53.2- 52.3---
2024-05-17 07:50 pmESE 3.9 5.8 0.3-2.5-29.81- 53.2- 52.3---
2024-05-17 07:40 pm SE 3.9 3.9----29.80- 53.1- 52.2---
2024-05-17 07:30 pm E 3.9 3.9----29.80- 53.1- 52.2---
2024-05-17 07:20 pm E 1.9 3.9 0.3-2.5---------
2024-05-17 07:10 pm E 3.9 3.9 0.3-2.5-29.80- 52.7- 51.8---
2024-05-17 07:00 pm E 3.9 3.9----29.80-0.02 52.5- 51.6---
2024-05-17 06:50 pm E 3.9 3.9----29.80- 52.2- 51.3---
2024-05-17 06:40 pmENE 1.9 1.9----29.80- 51.8- 50.9---
2024-05-17 06:30 pm N 1.9 1.9----29.80- 51.6- 50.7---
2024-05-17 06:20 pmNNE 1.9 1.9 0.3-2.6---------
2024-05-17 06:10 pmNNE 1.9 3.9 0.3-2.6-29.80- 51.3- 50.4---
2024-05-17 06:00 pmNNE 1.9 3.9----29.80-0.03 51.3- 50.4---
2024-05-17 05:50 pmNNE 3.9 3.9 0.3-2.7-29.80- 51.1- 50.2---

Detailed Wave Summary
for 45007 as of (5:10 pm EDT)
2110 GMT on 05/18/2024:

These wave data are displayed in rounded times.

     

Click on the graph icon in the table below to see a time series plot of the last five days of that observation.

5-day plot - Significant Wave Height Significant Wave Height (WVHT): 0.0 ft
5-day plot - Average Wave Period Average Wave Period (APD): 2.8 sec
Previous observations
TIME
(EDT)
5-day plot - Wave Height
WVHT
ft
5-day plot - Swell Height
SwH
ft
5-day plot - Swell Period
SwP
sec
5-day plot - Swell Direction
SwD
 
5-day plot - Wind Wave Height
WWH
ft
5-day plot - Wind Wave Period
WWP
sec
5-day plot - Wind Wave Direction
WWD
 
5-day plot - Wave Steepness
STEEPNESS
 
5-day plot - Average Wave Period
APD
sec
2024-05-18 04:39 pm 0.0------ N/A 2.7
2024-05-18 04:10 pm 0.0------ N/A 2.7
2024-05-18 03:40 pm 0.0------ N/A 2.7
2024-05-18 02:40 pm 0.0------ N/A 3.7
2024-05-18 02:10 pm 0.0------ N/A 2.8
2024-05-18 01:40 pm 0.0------ N/A 2.8
2024-05-18 01:10 pm 0.0------ N/A 3.2
2024-05-18 12:40 pm 0.0------ N/A 3.3
2024-05-18 12:10 pm 0.0------ N/A 3.3
2024-05-18 11:40 am 0.0------ N/A 3.8
2024-05-18 11:10 am 0.3------ N/A 2.7
2024-05-18 10:40 am 0.0------ N/A 3.8
2024-05-18 10:10 am 0.0------ N/A 3.3
2024-05-18 09:40 am 0.3------ N/A 3.2
2024-05-18 09:10 am 0.0------ N/A 2.8
2024-05-18 08:40 am 0.0------ N/A 2.6
2024-05-18 08:10 am 0.0------ N/A 2.7
2024-05-18 07:40 am 0.0------ N/A 2.6
2024-05-18 07:10 am 0.0------ N/A 2.6
2024-05-18 06:40 am 0.0------ N/A 2.7
2024-05-18 06:10 am 0.0------ N/A 2.7
2024-05-18 05:40 am 0.0------ N/A 2.7
2024-05-18 05:10 am 0.3------ N/A 3.0
2024-05-18 04:40 am 0.0------ N/A 2.8
2024-05-18 04:10 am 0.0------ N/A 2.7
2024-05-18 03:40 am 0.0------ N/A 2.6
2024-05-18 03:10 am 0.0------ N/A 2.6
2024-05-18 02:40 am 0.0------ N/A 2.6
2024-05-18 02:10 am 0.0------ N/A 2.5
2024-05-18 01:40 am 0.3------ N/A 2.3
2024-05-18 01:10 am 0.3------ N/A 2.4
2024-05-18 12:40 am 0.3------ N/A 2.4
2024-05-18 12:10 am 0.3------ N/A 2.3
2024-05-17 11:40 pm 0.3------ N/A 2.4
2024-05-17 11:10 pm 0.3------ N/A 2.4
2024-05-17 10:40 pm 0.3------ N/A 2.5
2024-05-17 10:10 pm 0.3------ N/A 2.8
2024-05-17 09:40 pm 0.3------ N/A 2.8
2024-05-17 09:10 pm 0.3------ N/A 2.9
2024-05-17 08:40 pm 0.3------ N/A 2.5
2024-05-17 08:10 pm 0.3------ N/A 2.7
2024-05-17 07:40 pm 0.3------ N/A 2.5
2024-05-17 07:10 pm 0.3------ N/A 2.5
2024-05-17 06:10 pm 0.3------ N/A 2.6

Plot of wave energy versus frequency (and period)